[[{"header":{"parameterUnit":"m.s-1","parameterCategory":1,"la1":30.2992,"la2":30.254,"lo1":-89.0895,"lo2":-89.0443,"dy":0.0025,"dx":0.0025,"nx":19,"ny":19,"refTime":"2026-04-10T09:00:00:Z","depth":0,"parameterNumber":2,"parameterNumberName":"U-component_of_WINDS"},"data":[0,0,0,-3.447,-3.4473,-3.4592,-3.4592,-3.4739,-3.474,0,0,0,0,0,0,0,0,0,0,0,-3.443,-3.4431,-3.447,-3.4473,-3.4592,-3.4592,-3.4739,-3.474,0,0,0,0,0,0,0,0,0,0,0,-3.4429,-3.443,-3.4431,-3.4473,-3.4592,-3.4592,-3.4739,-3.4651,0,0,0,0,0,0,0,0,0,0,-3.4536,-3.4494,-3.443,-3.4431,-3.4474,-3.4592,-3.4593,-3.4647,-3.4656,-3.4682,0,-3.4702,0,-3.4724,-3.475,-3.475,0,0,0,-3.4477,-3.4485,-3.4522,-3.4432,-3.4475,-3.4591,-3.4539,-3.4652,-3.4663,-3.4695,-3.4705,-3.471,-3.4726,-3.4751,-3.4751,-3.4887,-3.4888,0,0,-3.447,-3.4448,-3.4515,-3.4529,-3.4509,-3.4535,-3.4543,-3.4659,-3.4669,-3.4705,-3.4714,-3.4729,-3.4751,-3.4753,-3.4887,-3.4888,0,0,0,-3.4449,-3.4444,-3.4478,-3.4523,-3.4545,-3.4539,-3.4547,-3.4663,-3.4676,-3.4716,-3.473,-3.4752,-3.4754,-3.4887,-3.4887,-3.4891,0,0,0,-3.4445,-3.4431,-3.4475,-3.4463,-3.4542,-3.4605,-3.4549,-3.4668,-3.4682,-3.473,-3.4752,-3.4755,-3.4886,-3.4887,-3.489,-3.4897,0,0,0,-3.4424,-3.4429,-3.4444,-3.4461,-3.4512,-3.4604,-3.4624,-3.4672,-3.4691,-3.475,-3.4756,-3.4886,-3.4887,-3.4889,-3.4895,-3.4929,0,0,0,-3.4395,-3.4443,-3.4444,-3.4504,-3.4511,-3.4604,-3.4623,-3.4694,-3.4745,-3.4753,-3.4886,-3.4887,-3.4888,-3.4894,-3.4928,-3.4955,-3.4964,0,0,-3.4444,-3.4448,-3.4486,-3.449,-3.4579,-3.4588,-3.4678,-3.4744,-3.4769,-3.4847,-3.4851,-3.489,-3.4895,-3.4929,-3.5017,-3.5024,0,0,0,-3.4495,-3.4521,-3.455,-3.4598,-3.465,-3.4698,-3.4753,-3.4779,-3.4846,-3.4804,-3.4911,-3.4914,-3.4935,-3.495,-3.4956,-3.4977,-3.4892,-3.4892,-3.4892,-3.4533,-3.4564,-3.463,-3.4676,-3.4723,-3.4782,-3.4824,-3.4868,-3.4883,-3.4909,-3.4932,-3.4982,-3.4998,-3.5002,-3.5024,-3.4947,-3.4947,-3.4947,-3.4947,-3.4611,-3.4655,-3.4678,-3.475,-3.4783,-3.4844,-3.4904,-3.4914,-3.4978,-3.4965,-3.4985,-3.4972,-3.5009,-3.503,-3.4948,-3.4948,-3.4948,-3.4948,-3.4948,-3.4642,-3.4669,-3.47,-3.4776,-3.4832,-3.4877,-3.4938,-3.4965,-3.4991,-3.5011,-3.5042,-3.5042,-3.5048,-3.5023,-3.5024,-3.5024,-3.5024,-3.5024,-3.5024,-3.4662,-3.4697,-3.4745,-3.4808,-3.4845,-3.4898,-3.496,-3.4997,-3.5047,-3.5062,-3.5062,-3.5078,-3.5006,-3.4989,-3.5027,-3.5026,-3.5026,-3.5026,-3.5026,-3.4733,-3.4722,-3.4796,-3.4834,-3.4913,-3.4969,-3.5003,-3.5079,-3.5114,-3.5144,-3.5157,-3.5097,-3.5104,-3.5099,-3.5086,-3.5147,-3.5147,-3.5147,-3.5147,-3.4761,-3.4767,-3.4852,-3.4911,-3.4971,-3.5012,-3.5098,-3.5149,-3.5199,-3.5224,-3.5218,-3.5202,-3.5196,-3.5206,-3.5199,-3.5187,-3.5273,-3.5273,-3.5273,-3.4808,-3.4822,-3.489,-3.4939,-3.5004,-3.506,-3.5144,-3.5213,-3.5267,-3.5279,-3.5245,-3.5239,-3.5213,-3.5202,-3.5213,-3.5202,-3.5181,0,0]},{"header":{"parameterUnit":"m.s-1","parameterCategory":1,"la1":30.2992,"la2":30.254,"lo1":-89.0895,"lo2":-89.0443,"dy":0.0025,"dx":0.0025,"nx":19,"ny":19,"refTime":"2026-04-10T09:00:00:Z","depth":0,"parameterNumber":3,"parameterNumberName":"V-component_of_WINDS"},"data":[0,0,0,-1.5707,-1.5707,-1.571,-1.571,-1.5725,-1.5725,0,0,0,0,0,0,0,0,0,0,0,-1.5713,-1.5714,-1.5707,-1.5707,-1.571,-1.571,-1.5725,-1.5725,0,0,0,0,0,0,0,0,0,0,0,-1.5713,-1.5714,-1.5714,-1.5707,-1.571,-1.571,-1.5725,-1.5718,0,0,0,0,0,0,0,0,0,0,-1.5714,-1.5727,-1.5714,-1.5714,-1.5707,-1.571,-1.571,-1.5718,-1.5719,-1.5729,0,-1.5739,0,-1.5732,-1.5727,-1.5727,0,0,0,-1.5702,-1.5727,-1.5721,-1.5714,-1.5707,-1.571,-1.5707,-1.5718,-1.5719,-1.573,-1.5739,-1.574,-1.5733,-1.5727,-1.5727,-1.5802,-1.5802,0,0,-1.5702,-1.5718,-1.572,-1.5722,-1.5722,-1.5707,-1.5707,-1.5719,-1.573,-1.5739,-1.574,-1.5733,-1.5727,-1.5727,-1.5801,-1.5802,0,0,0,-1.5705,-1.5718,-1.5711,-1.5721,-1.5721,-1.5707,-1.5707,-1.573,-1.5726,-1.574,-1.5733,-1.5727,-1.5728,-1.58,-1.5801,-1.5848,0,0,0,-1.5705,-1.572,-1.5712,-1.5722,-1.5721,-1.5725,-1.5718,-1.5725,-1.5726,-1.5733,-1.5727,-1.5728,-1.58,-1.5801,-1.5845,-1.5867,0,0,0,-1.5711,-1.5721,-1.5723,-1.5723,-1.5724,-1.5725,-1.5722,-1.5725,-1.5722,-1.5727,-1.5728,-1.5799,-1.5801,-1.5842,-1.5863,-1.5892,0,0,0,-1.5722,-1.5764,-1.5724,-1.5769,-1.5724,-1.5753,-1.5721,-1.5742,-1.5751,-1.5727,-1.58,-1.5801,-1.5842,-1.5861,-1.589,-1.5921,-1.5935,0,0,-1.5785,-1.5773,-1.5797,-1.5761,-1.5802,-1.5751,-1.5798,-1.5791,-1.5776,-1.5794,-1.5796,-1.5846,-1.5863,-1.5892,-1.6006,-1.6017,0,0,0,-1.5823,-1.5841,-1.5848,-1.5857,-1.5853,-1.5851,-1.5834,-1.5832,-1.5846,-1.5789,-1.5863,-1.5873,-1.5889,-1.5903,-1.5913,-1.5926,-1.5808,-1.5808,-1.5808,-1.5936,-1.5914,-1.5954,-1.5933,-1.5942,-1.5925,-1.593,-1.5924,-1.5899,-1.5917,-1.5923,-1.5995,-1.6012,-1.6019,-1.6033,-1.5936,-1.5936,-1.5937,-1.5937,-1.6026,-1.6049,-1.6014,-1.6041,-1.6018,-1.604,-1.6024,-1.6006,-1.6023,-1.5989,-1.6002,-1.5967,-1.6032,-1.6043,-1.594,-1.5939,-1.5939,-1.5939,-1.5938,-1.6099,-1.6106,-1.6101,-1.6112,-1.6123,-1.61,-1.6118,-1.6096,-1.6075,-1.6088,-1.6092,-1.6091,-1.6089,-1.6091,-1.6091,-1.6092,-1.6092,-1.6092,-1.6092,-1.6177,-1.617,-1.6188,-1.6185,-1.6188,-1.619,-1.6172,-1.6174,-1.6171,-1.6154,-1.6154,-1.6128,-1.6042,-1.6021,-1.6096,-1.6095,-1.6095,-1.6095,-1.6094,-1.6279,-1.6252,-1.628,-1.6282,-1.6278,-1.629,-1.6261,-1.6268,-1.6266,-1.6276,-1.6247,-1.6186,-1.6173,-1.6165,-1.6148,-1.6251,-1.6251,-1.6251,-1.6251,-1.6341,-1.6331,-1.6355,-1.6361,-1.6364,-1.634,-1.6373,-1.6359,-1.634,-1.6338,-1.632,-1.6295,-1.6288,-1.6278,-1.6268,-1.6252,-1.6379,-1.6379,-1.6379,-1.6403,-1.6393,-1.6425,-1.6406,-1.64,-1.6396,-1.6426,-1.6434,-1.6408,-1.6384,-1.6336,-1.6331,-1.629,-1.6278,-1.6255,-1.624,-1.621,0,0]}]]